Regional Weather Roundup
Issued by NWS

Home | Current Version | Previous Version | Graphics & Text | Print | Product List | Glossary On
Versions: 1 2 3 4 5 6 7 8 9 10 11 12 13 14 15 16 17 18 19 20 21 22 23 24 25 26 27 28 29 30 31 32 33 34 35 36 37 38 39 40 41 42 43 44 45 46 47 48 49 50
734
ASUS43 KMPX 300010
RWRMN
WEATHER ROUNDUP FOR MINNESOTA
NATIONAL WEATHER SERVICE TWIN CITIES/CHANHASSEN MN
700 PM CDT SUN MAY 29 2016


NOTE: "FAIR" INDICATES FEW OR NO CLOUDS BELOW 12,000 FEET WITH NO
SIGNIFICANT WEATHER AND/OR OBSTRUCTIONS TO VISIBILITY. N/A MEANS
CURRENT SKY AND/OR WEATHER CONDITIONS ARE NOT AVAILABLE.

MNZ060>063-068>070-300100-
   Twin Cities Metro

CITY           SKY/WX    TMP DP  RH WIND       PRES   REMARKS
TWIN CITIES    CLOUDY    77  54  44 W12       29.92F
6HR MIN TEMP:  71; 6HR MAX TEMP:  79; 6HR PCP: TRACE;

ST PAUL        LGT RAIN  73  57  57 W7        29.92F
CRYSTAL        LGT RAIN  69  57  65 N12       29.92S
BLAINE         PTSUNNY   73  57  56 W10       29.93S
EDEN PRAIRIE   CLOUDY    76  57  51 W8        29.92F
6HR MIN TEMP:  71; 6HR MAX TEMP:  79; 6HR PCP:  0.01;

SOUTH ST PAUL  MOSUNNY   77  54  45 W8        29.92F
LAKE ELMO      FAIR      73  57  56 W7        29.93F
$$
MNZ001>005-007-008-013>017-022>024-027-028-300100-
   Northwest Minnesota

CITY           SKY/WX    TMP DP  RH WIND       PRES   REMARKS
BEMIDJI        SUNNY     67  48  49 W14       29.92S
HALLOCK        SUNNY     72  46  40 NW14      29.88F
ROSEAU         SUNNY     70  54  56 NW10G18   29.89S
WARROAD        SUNNY     70  55  60 W10G16    29.88S
THIEF RVR FALL SUNNY     70  52  52 NW13      29.92F
CROOKSTON      SUNNY     73  48  40 NW12      29.91S
FOSSTON        SUNNY     70  50  49 W7        29.93F
DETROIT LAKES  SUNNY     72  48  43 NW12      29.95S
MOORHEAD       SUNNY     75  46  35 NW8       29.93S
PARK RAPIDS    CLOUDY    70  52  52 NW9       29.94S
MAHNOMEN       FAIR      70  51  50 NW8       29.92F
$$
MNZ006-009>011-018-025>026-300100-
   North Central Minnesota

CITY           SKY/WX    TMP DP  RH WIND       PRES   REMARKS
BAUDETTE       MOSUNNY   67  54  63 NW12      29.87F
FLAG ISLAND    PTSUNNY   64  55  72 NW8       29.86S HAZE
INTL FALLS     PTSUNNY   65  54  67 NW7       29.87S
6HR MIN TEMP:  60; 6HR MAX TEMP:  68;

WASKISH        MOSUNNY   66  55  68 W13       29.89F
BIG FORK       MOSUNNY   66  54  63 CALM      29.90S
LONGVILLE      MOSUNNY   70  54  56 W6        29.93S
GRAND RAPIDS   PTSUNNY   68  54  60 SW6       29.92F
CRANE LAKE     MOSUNNY   63  55  77 W3        29.89S
ORR            CLOUDY    64  54  68 CALM      29.86S
COOK           MOSUNNY   64  55  72 W8        29.89S
WALKER         MOCLDY    68  51  53 W10G17    29.93R
$$
MNZ012-019>021-037-300100-
   Northeast Minnesota

CITY           SKY/WX    TMP DP  RH WIND       PRES   REMARKS
DULUTH         MOSUNNY   68  52  56 NW14      29.89F
6HR MIN TEMP:  62; 6HR MAX TEMP:  70; 6HR PCP: TRACE;

ELY            PTSUNNY   63  54  72 W8        29.88S
HIBBING        SUNNY     66  51  58 W12       29.89F
EVELETH        MOSUNNY   64  52  63 W9        29.90F
DULUTH HARBOR  MOSUNNY   70  55  60 W15       29.88S
TWO HARBORS      N/A     72  57  60 W6        29.86S
SILVER BAY     SUNNY     66  57  72 W7        29.85S
GRAND MARAIS     N/A     65  54  67 VRB7      29.80S
G MARAIS ARPRT MOSUNNY   59  52  77 W12G21    29.84S
$$
MNZ029>031-032-039>041-046>048-054>057-064-300100-
   West Central Minnesota

CITY           SKY/WX    TMP DP  RH WIND       PRES   REMARKS
FERGUS FALLS   SUNNY     75  45  33 W14G23    29.90F
WHEATON        SUNNY     79  46  31 NW14G20   29.95F
MORRIS         SUNNY     75  45  33 NW21G28   29.94F
ALEXANDRIA     SUNNY     73  47  39 NW13      29.96F
ELBOW LAKE     FAIR      74  47  38 W12       29.95F
WADENA         MOSUNNY   72  52  49 NW13      29.94F
GLENWOOD       SUNNY     73  46  38 W15G23    29.97S
APPLETON       SUNNY     81  37  21 W17       29.94F
ORTONVILLE     SUNNY     79  41  25 NW10      29.95F
MADISON        SUNNY     79  39  24 W13G20    29.96S
WILLMAR        FAIR      77  48  36 NW16      29.96F
$$
MNZ033>034-036-042>043-049>051-058-059-300100-
   Central Minnesota

CITY           SKY/WX    TMP DP  RH WIND       PRES   REMARKS
ST CLOUD       SUNNY     74  53  48 NW10      29.93F
6HR MIN TEMP:  71; 6HR MAX TEMP:  78; 6HR PCP: TRACE;

SAUK CENTRE    MOCLDY    73  50  44 W10G18    29.95F
PAYNESVILLE    MOSUNNY   76  44  32 NW12G18   29.96S
AITKIN         PTSUNNY   73  50  43 W5        29.91S
PINE RIVER     MOSUNNY   70  54  56 NW9       29.97S
BRAINERD       PTSUNNY   71  51  49 NW14      29.94R
STAPLES        MOSUNNY   70  52  52 NW10G16   29.94S
LONG PRAIRIE   PTSUNNY   72  52  49 W12       29.95S
LITTLE FALLS   MOSUNNY   72  50  46 NW5       29.94S
LITCHFIELD     MOSUNNY   75  55  50 NW13      29.96R
BUFFALO        SUNNY     74  55  51 W3        29.95S
MAPLE LAKE     SUNNY     74  58  57 NW6       29.95S
HUTCHINSON     SUNNY     74  61  62 W6        29.96S
$$
MNZ037-044-045-052-053-300100-
   East Central Minnesota

CITY           SKY/WX    TMP DP  RH WIND       PRES   REMARKS
PRINCETON      SUNNY     75  55  50 W10       29.93S
MORA           MOSUNNY   70  54  56 NW6       29.93F
CAMBRIDGE        N/A     77  57  50 W6        29.91F
RUSH CITY      MOSUNNY   73  57  57 NW6       29.92S
MOOSE LAKE     SUNNY     70  52  52 NW8       29.90S
HINCKLEY       FAIR      72  54  53 W8        29.92S
CLOQUET        SUNNY     70  50  49 NW13G21   29.91S
MCGREGOR       MOSUNNY   70  54  56 NW8       29.92S
$$
MNZ071>073-080-081-089-090-097-098-300100-
   Southwest Minnesota

CITY           SKY/WX    TMP DP  RH WIND       PRES   REMARKS
MONTEVIDEO     SUNNY     79  43  27 NW9G18    29.98S
GRANITE FALLS  SUNNY     80  45  28 NW12G23   29.98S
CANBY          SUNNY     78  48  34 W9        29.98F
MARSHALL       SUNNY     78  44  29 NW13      29.97F
REDWOOD FALLS  SUNNY     78  45  30 NW10      29.95S
OLIVIA         SUNNY     73  45  35 NW14      29.95S
PIPESTONE      SUNNY     75  43  31 N8        30.01F
WINDOM         SUNNY     75  43  31 NW7G17    29.99F
WORTHINGTON    SUNNY     74  50  42 W12       30.01F
JACKSON        SUNNY     77  37  24 NW16      30.00S
TRACY          SUNNY     77  49  37 NW12G18   29.99S
SLAYTON        SUNNY     75  44  32 NW14      30.01S
$$
MNZ065>067-074>077-082>085-091>093-300100-
   South Central Minnesota

CITY           SKY/WX    TMP DP  RH WIND       PRES   REMARKS
MANKATO        MOSUNNY   75  54  46 W10       29.95S
NEW ULM        SUNNY     75  48  38 NW16      29.95S
ST JAMES       SUNNY     72  43  35 W14       29.97F
FAIRMONT       SUNNY     77  46  33 NW16      29.97F
GLENCOE        SUNNY     74  60  61 W7        29.94F
FARIBAULT      MOSUNNY   73  61  64 W6        29.95F
OWATONNA       SUNNY     75  57  53 W6        29.96S
WASECA         SUNNY     77  54  44 W13       29.97S
ALBERT LEA     SUNNY     77  54  44 W6        29.96F
$$
MNZ078>079-086>088-094>096-300100-
   Southeast Minnesota

CITY           SKY/WX    TMP DP  RH WIND       PRES   REMARKS
ROCHESTER      SUNNY     74  61  63 W9        29.97F
6HR MIN TEMP:  71; 6HR MAX TEMP:  77;

RED WING       MOSUNNY   75  55  50 W9        29.92S
STANTON        SUNNY     73  58  59 W7        29.93F
DODGE CENTER   SUNNY     75  55  50 NW7       29.97S
WINONA         PTSUNNY   73  55  53 W6        29.94F
AUSTIN         MOSUNNY   75  54  46 NW10      29.96F
PRESTON        SUNNY     73  58  59 NW6       29.98S
$$
ABBREVIATIONS USED IN REMARKS
   TC - TEMPERATURES IN CELSIUS
  WCI - WIND CHILL INDEX
   HX - HEAT INDEX
  VSB - VISIBILITY
$$




USA.gov is the U.S. government's official web portal to all federal, state and local government web resources and services.